Home   Weather   Manchester   Past weeks
Flag for United Kingdom

Past Weather in Manchester, England, United Kingdom — Yesterday and Last 2 Weeks

Now
45 °F

Quite cool.


Feels Like: 42 °F
Forecast: 66 / 46 °F
Wind: 5 mph from Southeast

Location: Manchester Airport

Current Time: Apr 8, 2020 at 4:01:14 am

Latest Report: Apr 8, 2020 at 3:20 am


Visibility: N/A

Pressure: 30.30 "Hg

Humidity: 81%

Dew Point: 39 °F

Location of ManchesterLocation

Past Weather in Manchester — Graph

°F

Manchester Temperature Yesterday

Maximum temperature yesterday: 63 °F (at 3:50 pm)
Minimum temperature yesterday: 34 °F (at 4:50 am)
Average temperature yesterday: 49 °F

High & Low Weather Summary for the Past Weeks

 TemperatureHumidityPressure
High66 °F (Apr 5, 2:50 pm)94% (Apr 2, 1:50 pm)30.83 "Hg (Apr 2, 1:50 pm)
Low30 °F (Mar 27, 2:20 am)16% (Mar 26, 1:20 pm)29.65 "Hg (Apr 6, 12:50 am)
Average47 °F65%30.26 "Hg
* Reported Mar 24 1:20 am — Apr 8 2:50 am, Manchester. Weather by CustomWeather, © 2020

Note: Actual official high and low records may vary slightly from our data, if they occured in-between our weather recording intervals... More about our weather records

Manchester Weather History for the Previous 24 Hours

Scroll right to see more
 ConditionsComfort  
Time TempWeatherWind HumidityBarometerVisibility
2:50 am
Wed, Apr 8
43 °FQuite cool.3 mph87%30.30 "HgN/A
2:20 am43 °FQuite cool.3 mph87%30.30 "HgN/A
1:50 am43 °FQuite cool.5 mph81%30.30 "HgN/A
1:20 am45 °FQuite cool.2 mph81%30.33 "HgN/A
12:50 am46 °FCool.1 mph76%30.33 "HgN/A
12:20 am45 °FQuite cool.5 mph81%30.33 "HgN/A
11:50 pm
Tue, Apr 7
45 °FQuite cool.5 mph81%30.33 "HgN/A
11:20 pm48 °FCool.No wind76%30.33 "HgN/A
10:50 pm48 °FCool.2 mph76%30.33 "HgN/A
10:20 pm50 °FCool.3 mph67%30.33 "HgN/A
9:50 pm50 °FCool.3 mph67%30.33 "HgN/A
9:20 pm50 °FCool.3 mph71%30.33 "HgN/A
8:50 pm52 °FCool.3 mph67%30.33 "HgN/A
8:20 pm55 °FRefreshingly cool.2 mph55%30.30 "HgN/A
7:50 pm57 °FRefreshingly cool.2 mph51%30.30 "HgN/A
7:20 pm57 °FRefreshingly cool.6 mph51%30.30 "HgN/A
6:50 pm59 °FRefreshingly cool.7 mph51%30.30 "HgN/A
6:20 pm59 °FRefreshingly cool.6 mph51%30.33 "HgN/A
5:50 pm61 °FRefreshingly cool.8 mph45%30.33 "HgN/A
5:20 pm61 °FRefreshingly cool.7 mph48%30.33 "HgN/A
4:50 pm61 °FRefreshingly cool.7 mph48%30.33 "HgN/A
4:20 pm61 °FRefreshingly cool.9 mph45%30.33 "HgN/A
3:50 pm63 °FMild.8 mph42%30.33 "HgN/A
3:20 pm61 °FRefreshingly cool.6 mph45%30.36 "HgN/A
2:50 pm61 °FRefreshingly cool.8 mph42%30.36 "HgN/A
2:20 pm61 °FRefreshingly cool.7 mph42%30.36 "HgN/A
1:50 pm59 °FRefreshingly cool.7 mph45%30.39 "HgN/A
1:20 pm59 °FRefreshingly cool.7 mph42%30.39 "HgN/A
12:50 pm59 °FRefreshingly cool.6 mph39%30.39 "HgN/A
12:20 pm57 °FRefreshingly cool.7 mph41%30.39 "HgN/A
11:50 am57 °FRefreshingly cool.7 mph41%30.39 "HgN/A
11:20 am55 °FRefreshingly cool.7 mph47%30.42 "HgN/A
10:50 am54 °FCool.5 mph58%30.42 "HgN/A
10:20 am52 °FCool.5 mph58%30.42 "HgN/A
9:50 am50 °FCool.5 mph67%30.42 "HgN/A
9:20 am48 °FCool.6 mph71%30.42 "HgN/A
8:50 am46 °FCool.5 mph76%30.42 "HgN/A
8:20 am45 °FQuite cool.2 mph76%30.42 "HgN/A
7:50 am39 °FChilly.2 mph87%30.42 "HgN/A
7:20 am36 °FChilly.2 mph87%30.39 "HgN/A
6:50 am36 °FChilly.2 mph93%30.39 "HgN/A
6:20 am36 °FChilly.2 mph93%30.39 "HgN/A
5:50 am34 °FChilly.2 mph93%30.39 "HgN/A
5:20 am36 °FChilly.3 mph87%30.39 "HgN/A
4:50 am34 °FChilly.2 mph93%30.39 "HgN/A
4:20 am37 °FChilly.2 mph87%30.36 "HgN/A
Weather by CustomWeather, © 2020

See weather overview

Advertising